Regional Weather Roundup
Issued by NWS

Home | Current Version | Previous Version | Graphics & Text | Print | Product List | Glossary Off
Versions: 1 2 3 4 5 6 7 8 9 10 11 12 13 14 15 16 17 18 19 20 21 22 23 24 25 26 27 28 29 30 31 32 33 34 35 36 37 38 39 40 41 42 43 44 45 46 47 48 49 50

000
ASUS43 KDMX 300306
RWRIA

WEATHER ROUNDUP FOR IOWA
NATIONAL WEATHER SERVICE DES MOINES IA
1000 PM CDT SAT APR 29 2017

NOTE: "FAIR" INDICATES FEW OR NO CLOUDS BELOW 12,000 FEET WITH NO
SIGNIFICANT WEATHER AND/OR OBSTRUCTIONS TO VISIBILITY.

* - THESE STATIONS ARE NOT NWS STATIONS...THUS NOT UNDER NWS
QUALITY CONTROL.  THEY ALSO DO NOT REPORT WEATHER SUCH
AS PRECIPITATION OR FOG.

IAZ001>003-012>014-020>022-031>034-043>046-300400-
   NORTHWEST IOWA

CITY           SKY/WX    TMP DP  RH WIND       PRES   REMARKS
CARROLL *      CLOUDY    45  34  65 NE24      30.06R
CHEROKEE *     CLOUDY    46  30  52 NE12      30.10R
DENISON *      MIX PCPN  43  36  75 NE18G30   30.07S
LE MARS *      CLOUDY    48  28  46 NE14      30.12R
ORANGE CITY *  CLOUDY    46  30  53 E9        30.12R
SHELDON *      CLOUDY    46  28  49 NE14      30.11R
SIOUX CITY     CLOUDY    48  30  49 E16G28    30.10R
SPENCER        CLOUDY    47  31  53 NE13      30.12R
STORM LAKE *   CLOUDY    43  34  70 NE20G30   30.09R
$$

IAZ055>058-069>071-079>083-090>094-300400-
   SOUTHWEST IOWA

CITY           SKY/WX    TMP DP  RH WIND       PRES   REMARKS
ATLANTIC *     MIX PCPN  41  39  93 NE16G26   30.01R
AUDUBON *      CLOUDY    43  36  75 NE16G25   30.03S
CLARINDA *       N/A     41  41 100 MISG      29.99R FOG
COUNCIL BLFS * CLOUDY    41  41 100 NE21G30   30.02R
CRESTON *      LGT RAIN  39  39 100 NE22      29.98R WCI  29
HARLAN  *      CLOUDY    43  36  75 NE20G30   30.05R
LAMONI         CLOUDY    41  40  96 NE13      29.96R FOG
RED OAK *      MIX PCPN  41  39  93 NE16G23   30.00R
SHENANDOAH *   MIX PCPN  41  41 100 NE17      29.98S
$$

IAZ047>049-059>061-072>074-084-300400-
   CENTRAL IOWA

CITY           SKY/WX    TMP DP  RH WIND       PRES   REMARKS
AMES           CLOUDY    43  36  76 NE13G23   30.04S
ANKENY *       LGT RAIN  39  37  93 NE12G18   30.04R WCI  32
BOONE *        CLOUDY    43  37  81 NE16G23   30.03R
CHARITON *     CLOUDY    41  39  93 NE16      29.96R FOG
DES MOINES     LGT RAIN  41  39  93 NE16      30.01R FOG
GRINNELL*      LGT RAIN  39  38  95 NE15      30.01F WCI  31
KNOXVILLE *    CLOUDY    41  39  93 NE13G24   29.97F FOG
MARSHALLTOWN   CLOUDY    41  36  82 NE18      30.02F
NEWTON *       CLOUDY    39  37  93 NE17G25   29.99F FOG     WCI  30
PELLA *        DRIZZLE   40  39  97 E10G16    29.99F WCI  34
PERRY *        CLOUDY    43  36  77 NE12      30.04R
$$

IAZ004>006-015-016-023>025-035-036-300400-
   NORTH CENTRAL IOWA

CITY           SKY/WX    TMP DP  RH WIND       PRES   REMARKS
ALGONA *       CLOUDY    46  32  57 NE12G17   30.11R
CLARION *      CLOUDY    45  32  61 NE15G22   30.08R
ESTHERVILLE    CLOUDY    46  31  55 NE13      30.13S
FORT DODGE *   CLOUDY    45  30  57 NE14      30.08R
MASON CITY     CLOUDY    45  30  55 NE15      30.09F
FOREST CITY *  CLOUDY    46  27  46 NE9       30.10S
WEBSTER CITY * CLOUDY    45  32  61 NE13      30.04R
IOWA FALLS *   CLOUDY    44  34  67 NE13G20   30.06S
$$

IAZ007>011-017>019-026>030-037>042-050>054-066-300400-
   NORTHEAST IOWA

CITY           SKY/WX    TMP DP  RH WIND       PRES   REMARKS
CEDAR RAPIDS   LGT RAIN  41  38  89 NE14      30.01R
CHARLES CITY * CLOUDY    45  30  57 NE13G18   30.10S
CLINTON *      LGT RAIN  41  38  89 E20G29    30.01F
DECORAH *      CLOUDY    45  27  49 NE17G31   30.08F
DUBUQUE        CLOUDY    40  34  79 NE17G28   30.02F WCI  31
MONTICELLO *   CLOUDY    41  36  81 NE14G21   30.03R
OELWEIN *      CLOUDY    41  36  81 NE18G28   30.05S
WATERLOO       CLOUDY    42  33  70 NE17      30.06S
$$

IAZ064-065-067-068-078-300400-
   EAST CENTRAL IOWA

CITY           SKY/WX    TMP DP  RH WIND       PRES   REMARKS
DAVENPORT      CLOUDY    41  38  89 NE21      30.00F
IOWA CITY      CLOUDY    44  37  76 NE10G29   30.03R
MT. PLEASANT * DRIZZLE   40  40 100 NE16      29.96F WCI  32
MUSCATINE *    CLOUDY    43  39  87 NE15      30.00R FOG
QUAD CITIES    LGT RAIN  42  38  85 NE17      29.98S FOG
$$

IAZ062-063-075>077-085>089-095>099-300400-
   SOUTHEAST IOWA

CITY           SKY/WX    TMP DP  RH WIND       PRES   REMARKS
BURLINGTON     CLOUDY    42  42 100 NE15      29.95R FOG
FAIRFIELD *    CLOUDY    41  39  93 NE18      29.98R FOG
FORT MADISON * CLOUDY    43  41  93 NE13G24   29.94F FOG
KEOKUK *       CLOUDY    43  41  93 NE13G18   29.92F FOG
OSKALOOSA *    LGT RAIN  40  39  96 NE21      29.96F WCI  30
CENTERVILLE *  CLOUDY    39  39 100 NE14G24   29.94F WCI  31
OTTUMWA        CLOUDY    41  40  96 NE20      29.95F FOG
WASHINGTON *   CLOUDY    41  41 100 NE14      30.01R FOG
$$

ABBREVIATIONS USED IN REMARKS
   TC - TEMPERATURES IN CELSIUS
  WCI - WIND CHILL INDEX
   HX - HEAT INDEX
  VSB - VISIBILITY
$$





USA.gov is the U.S. government's official web portal to all federal, state and local government web resources and services.